When you browse on this site, cookies collect data to enhance your experience and personalize the content and advertising you see.
Visit our Privacy Policy to learn more. By continuing to use the site, you agree to this use of cookies and data.
  • In Sweden
  • List of Countries
  • For 7 days
  • Water Temperature
  • Weather Map
  • Weather Widgets
  • user-avatar
    Login

    Hourly Weather Olyanyne

    Today, 18 October, Friday

    Time Temperature Precipitation Wind Pressure Humidity
    00:00 +15°C° 0 mm 1 mps 749 mmHg 54%
    01:00 +14°C° 0 mm 1 mps 749 mmHg 56%
    02:00 +14°C° 0 mm 1 mps 749 mmHg 57%
    03:00 +14°C° 0 mm 1 mps 749 mmHg 59%
    04:00 +13°C° 0 mm 1 mps 749 mmHg 60%
    05:00 +13°C° 0 mm 1 mps 749 mmHg 62%
    06:00 +13°C° 0 mm 1 mps 749 mmHg 61%
    07:00 +14°C° 0 mm 1 mps 749 mmHg 60%
    08:00 +15°C° 0 mm 1 mps 749 mmHg 59%
    09:00 +18°C° 0 mm 1 mps 750 mmHg 53%
    10:00 +20°C° 0 mm 1 mps 750 mmHg 48%
    11:00 +21°C° 0 mm 1 mps 750 mmHg 42%
    12:00 +22°C° 0 mm 1 mps 749 mmHg 40%
    13:00 +23°C° 0 mm 1 mps 749 mmHg 39%
    14:00 +23°C° 0 mm 1 mps 749 mmHg 37%
    15:00 +21°C° 0 mm 2 mps 749 mmHg 42%
    16:00 +19°C° 0 mm 2 mps 749 mmHg 46%
    17:00 +18°C° 0 mm 2 mps 748 mmHg 51%
    18:00 +17°C° 0 mm 2 mps 749 mmHg 53%
    19:00 +16°C° 0 mm 2 mps 749 mmHg 55%
    20:00 +15°C° 0 mm 2 mps 749 mmHg 58%
    21:00 +15°C° 0 mm 1 mps 749 mmHg 59%
    22:00 +15°C° 0 mm 1 mps 749 mmHg 61%
    23:00 +14°C° 0 mm 1 mps 749 mmHg 62%

    Tomorrow, 19 October, Saturday

    Time Temperature Precipitation Wind Pressure Humidity
    00:00 +14°C° 0 mm 1 mps 749 mmHg 64%
    01:00 +14°C° 0 mm 1 mps 749 mmHg 65%
    02:00 +13°C° 0 mm 1 mps 749 mmHg 66%
    03:00 +13°C° 0 mm 1 mps 749 mmHg 67%
    04:00 +13°C° 0 mm 1 mps 749 mmHg 68%
    05:00 +12°C° 0 mm 1 mps 750 mmHg 69%
    06:00 +13°C° 0 mm 1 mps 750 mmHg 67%
    07:00 +14°C° 0 mm 1 mps 750 mmHg 64%
    08:00 +15°C° 0 mm 1 mps 750 mmHg 61%
    09:00 +18°C° 0 mm 1 mps 750 mmHg 56%
    10:00 +19°C° 0 mm 2 mps 750 mmHg 50%
    11:00 +21°C° 0 mm 2 mps 751 mmHg 44%
    12:00 +21°C° 0 mm 2 mps 750 mmHg 41%
    13:00 +23°C° 0 mm 2 mps 750 mmHg 38%
    14:00 +24°C° 0 mm 2 mps 750 mmHg 36%
    15:00 +21°C° 0 mm 2 mps 750 mmHg 39%
    16:00 +20°C° 0 mm 2 mps 750 mmHg 43%
    17:00 +18°C° 0 mm 2 mps 750 mmHg 46%
    18:00 +18°C° 0 mm 2 mps 750 mmHg 48%
    19:00 +17°C° 0 mm 2 mps 750 mmHg 50%
    20:00 +16°C° 0 mm 2 mps 750 mmHg 52%
    21:00 +15°C° 0 mm 2 mps 751 mmHg 54%
    22:00 +15°C° 0 mm 2 mps 751 mmHg 55%
    23:00 +14°C° 0 mm 2 mps 751 mmHg 56%

    Day after tomorrow, 20 October, Sunday

    Time Temperature Precipitation Wind Pressure Humidity
    00:00 +14°C° 0 mm 2 mps 751 mmHg 58%
    01:00 +14°C° 0 mm 2 mps 751 mmHg 60%
    02:00 +13°C° 0 mm 2 mps 751 mmHg 61%
    03:00 +13°C° 0 mm 2 mps 751 mmHg 63%
    04:00 +13°C° 0 mm 2 mps 751 mmHg 66%
    05:00 +12°C° 0 mm 2 mps 751 mmHg 68%
    06:00 +13°C° 0 mm 2 mps 751 mmHg 66%
    07:00 +14°C° 0 mm 2 mps 752 mmHg 64%
    08:00 +14°C° 0 mm 2 mps 752 mmHg 62%
    09:00 +16°C° 0 mm 2 mps 752 mmHg 56%
    10:00 +18°C° 0 mm 2 mps 752 mmHg 50%
    11:00 +20°C° 0 mm 3 mps 752 mmHg 43%
    12:00 +21°C° 0 mm 3 mps 752 mmHg 40%
    13:00 +22°C° 0 mm 3 mps 752 mmHg 38%
    14:00 +24°C° 0 mm 3 mps 751 mmHg 35%
    15:00 +21°C° 0 mm 2 mps 751 mmHg 38%
    16:00 +20°C° 0 mm 2 mps 751 mmHg 42%
    17:00 +18°C° 0 mm 2 mps 751 mmHg 46%
    18:00 +17°C° 0 mm 2 mps 751 mmHg 48%
    19:00 +17°C° 0 mm 2 mps 751 mmHg 51%
    20:00 +16°C° 0 mm 2 mps 752 mmHg 53%
    21:00 +15°C° 0 mm 2 mps 752 mmHg 55%
    22:00 +15°C° 0 mm 2 mps 752 mmHg 58%
    23:00 +14°C° 0 mm 2 mps 752 mmHg 60%

    21 October, Monday

    Time Temperature Precipitation Wind Pressure Humidity
    00:00 +14°C° 0 mm 2 mps 752 mmHg 62%
    01:00 +14°C° 0 mm 2 mps 752 mmHg 64%
    02:00 +13°C° 0 mm 2 mps 752 mmHg 66%
    03:00 +13°C° 0 mm 2 mps 752 mmHg 67%
    04:00 +13°C° 0 mm 2 mps 752 mmHg 68%
    05:00 +12°C° 0 mm 2 mps 752 mmHg 70%
    06:00 +13°C° 0 mm 2 mps 752 mmHg 67%
    07:00 +14°C° 0 mm 2 mps 752 mmHg 65%
    08:00 +15°C° 0 mm 2 mps 752 mmHg 62%
    09:00 +17°C° 0 mm 3 mps 752 mmHg 56%
    10:00 +19°C° 0 mm 3 mps 752 mmHg 50%
    11:00 +21°C° 0 mm 3 mps 752 mmHg 43%
    12:00 +21°C° 0 mm 3 mps 752 mmHg 41%
    13:00 +22°C° 0 mm 3 mps 752 mmHg 38%
    14:00 +23°C° 0 mm 4 mps 751 mmHg 36%
    15:00 +21°C° 0 mm 3 mps 751 mmHg 40%
    16:00 +20°C° 0 mm 3 mps 751 mmHg 44%
    17:00 +18°C° 0 mm 2 mps 751 mmHg 48%
    18:00 +18°C° 0 mm 3 mps 751 mmHg 51%
    19:00 +17°C° 0 mm 3 mps 751 mmHg 53%
    20:00 +16°C° 0 mm 3 mps 751 mmHg 55%
    21:00 +16°C° 0 mm 3 mps 750 mmHg 57%
    22:00 +14°C° 0 mm 3 mps 750 mmHg 59%
    23:00 +14°C° 0 mm 3 mps 750 mmHg 60%

    22 October, Tuesday

    Time Temperature Precipitation Wind Pressure Humidity
    00:00 +13°C° 0 mm 3 mps 750 mmHg 63%
    01:00 +13°C° 0 mm 3 mps 750 mmHg 66%
    02:00 +13°C° 0 mm 3 mps 750 mmHg 69%
    03:00 +12°C° 0 mm 3 mps 750 mmHg 71%
    04:00 +12°C° 0 mm 3 mps 750 mmHg 73%
    05:00 +12°C° 0 mm 3 mps 750 mmHg 74%
    06:00 +12°C° 0 mm 3 mps 750 mmHg 71%
    07:00 +13°C° 0 mm 3 mps 750 mmHg 67%
    08:00 +14°C° 0 mm 3 mps 750 mmHg 64%
    09:00 +17°C° 0 mm 3 mps 750 mmHg 60%
    10:00 +18°C° 0 mm 3 mps 750 mmHg 56%
    11:00 +20°C° 0 mm 3 mps 750 mmHg 52%
    12:00 +21°C° 0 mm 3 mps 750 mmHg 52%
    13:00 +21°C° 0 mm 4 mps 750 mmHg 52%
    14:00 +22°C° 0 mm 4 mps 750 mmHg 52%
    15:00 +20°C° 0 mm 4 mps 750 mmHg 58%
    16:00 +19°C° 0 mm 5 mps 751 mmHg 64%
    17:00 +16°C° 0 mm 5 mps 751 mmHg 71%
    18:00 +16°C° 0 mm 5 mps 751 mmHg 71%
    19:00 +15°C° 0 mm 5 mps 752 mmHg 70%
    20:00 +14°C° 0 mm 5 mps 752 mmHg 70%
    21:00 +14°C° 0 mm 5 mps 752 mmHg 69%
    22:00 +13°C° 0 mm 5 mps 753 mmHg 67%
    23:00 +13°C° 0 mm 4 mps 753 mmHg 65%

    23 October, Wednesday

    Time Temperature Precipitation Wind Pressure Humidity
    00:00 +12°C° 0 mm 4 mps 753 mmHg 66%
    01:00 +11°C° 0 mm 4 mps 754 mmHg 67%
    02:00 +11°C° 0 mm 4 mps 754 mmHg 68%
    03:00 +10°C° 0 mm 4 mps 754 mmHg 73%
    04:00 +8°C° 0 mm 4 mps 754 mmHg 78%
    05:00 +8°C° 0 mm 3 mps 754 mmHg 82%
    06:00 +7°C° 0 mm 4 mps 755 mmHg 81%
    07:00 +8°C° 0 mm 4 mps 755 mmHg 79%
    08:00 +8°C° 0 mm 4 mps 755 mmHg 78%
    09:00 +10°C° 0 mm 4 mps 755 mmHg 69%
    10:00 +12°C° 0 mm 4 mps 755 mmHg 61%
    11:00 +13°C° 0 mm 3 mps 755 mmHg 52%
    12:00 +14°C° 0 mm 3 mps 755 mmHg 48%
    13:00 +14°C° 0 mm 3 mps 755 mmHg 44%
    14:00 +16°C° 0 mm 3 mps 755 mmHg 40%
    15:00 +14°C° 0 mm 3 mps 755 mmHg 44%
    16:00 +12°C° 0 mm 3 mps 755 mmHg 48%
    17:00 +12°C° 0 mm 2 mps 754 mmHg 52%
    18:00 +10°C° 0 mm 2 mps 755 mmHg 54%
    19:00 +10°C° 0 mm 2 mps 755 mmHg 56%
    20:00 +9°C° 0 mm 2 mps 755 mmHg 58%
    21:00 +9°C° 0 mm 2 mps 755 mmHg 60%
    22:00 +8°C° 0 mm 2 mps 755 mmHg 63%
    23:00 +8°C° 0 mm 2 mps 755 mmHg 65%
    Show more